Location: Powder Track
(41.8531°N, 72.3584°W)
Time: 21:04:42
(UTC+00:00)

X-37B - Visible Passes

Search period start: 23 June 2021 00:00
Search period end: 03 July 2021 00:00
Orbit: 386 x 389 km, 45.0° (Epoch: 10 June)

Date Brightness Start Highest point End Pass type
(mag) Time Alt. Az. Time Alt. Az. Time Alt. Az.
23 Jun 0.9 02:04:23 10° SW 02:07:23 40° SSE 02:08:47 25° E visible
23 Jun 3.4 03:40:52 10° W 03:41:15 13° W 03:41:15 13° W visible
23 Jun 2.5 06:59:41 19° SE 06:59:41 19° SE 07:00:46 10° ESE visible
23 Jun 2.6 08:32:46 10° WSW 08:33:47 11° SW 08:34:49 10° SSW visible
24 Jun 1.8 01:06:34 10° SSW 01:09:10 23° SSE 01:11:47 10° E visible
24 Jun 0.7 02:42:25 10° WSW 02:45:36 76° NNW 02:47:14 26° ENE visible
24 Jun 3.6 04:19:23 10° WNW 04:19:35 11° WNW 04:19:35 11° WNW visible
25 Jun 0.5 01:44:04 10° WSW 01:47:13 70° SSE 01:50:24 10° ENE visible
25 Jun 1.6 03:20:54 10° W 03:23:59 46° N 03:24:24 43° NNE visible
26 Jun 1.3 02:22:24 10° W 02:25:32 55° NNW 02:28:40 10° ENE visible
26 Jun 2.6 03:59:21 10° WNW 04:01:00 26° NW 04:01:00 26° NW visible
27 Jun 0.8 01:23:56 10° WSW 01:27:07 76° NNW 01:30:18 10° ENE visible
27 Jun 1.7 03:00:55 10° WNW 03:03:59 44° N 03:05:05 30° NE visible
28 Jun 1.6 02:02:26 10° W 02:05:31 46° N 02:08:36 10° ENE visible
28 Jun 2.1 03:39:16 10° WNW 03:41:21 35° NW 03:41:21 35° NW visible
29 Jun 1.3 01:03:56 10° W 01:07:04 55° N 01:10:12 10° ENE visible
29 Jun 1.4 02:40:53 10° WNW 02:43:59 48° N 02:45:17 28° ENE visible
30 Jun 1.7 01:42:27 10° WNW 01:45:32 44° N 01:48:35 10° ENE visible
30 Jun 1.6 03:19:10 10° WNW 03:21:26 43° WNW 03:21:26 43° WNW visible
01 Jul 1.0 02:20:48 10° WNW 02:23:57 61° NNE 02:25:20 29° E visible
01 Jul 3.6 03:57:35 10° W 03:57:36 10° W 03:57:36 10° W visible
02 Jul 1.4 01:22:24 10° WNW 01:25:31 48° N 01:28:37 10° E visible
02 Jul 1.4 02:59:05 10° WNW 03:01:30 43° WSW 03:01:30 43° WSW visible
